Precipitable_Water
1.04 0.97 0.86 0.78 0.85 0.91 0.92 0.89 0.91 0.90 0.90 0.94 1.14 1.25 1.17 1.08 1.04 0.97 0.92 0.85 0.78 0.79 0.75 0.73 0.75 0.76 0.76 0.82 0.89 0.91 0.79 0.87 0.88
1.04 0.97 0.90 0.83 0.92 1.02 1.05 1.02 1.09 1.07 0.95 0.96 1.12 1.22 1.17 1.10 1.02 0.94 0.85 0.87 0.83 0.82 0.82 0.81 0.96 1.13 0.96 0.96 1.05 1.03 0.93 0.83 0.85
0.93 0.97 0.82 0.80 0.90 1.07 1.05 1.05 1.05 1.00 0.97 0.97 1.04 1.16 1.15 1.06 0.96 0.88 0.83 0.85 0.86 0.79 0.82 0.85 0.98 1.04 1.02 1.03 1.02 1.05 1.06 1.06 0.95
0.79 0.90 0.82 0.80 0.83 0.99 1.03 1.00 0.97 0.95 0.95 0.95 1.00 1.13 1.07 0.95 0.88 0.83 0.81 0.86 0.87 0.87 0.78 0.84 0.91 0.95 0.98 0.96 0.97 1.00 0.96 0.97 1.07
0.76 0.81 0.86 0.79 0.83 0.87 0.94 0.96 0.98 0.84 0.87 0.86 0.91 0.97 1.01 0.90 0.86 0.82 0.82 0.88 0.84 0.84 0.78 0.87 0.86 0.86 0.89 0.95 0.99 0.97 1.01 1.05 1.04
0.79 0.80 0.82 0.81 0.82 0.79 0.88 0.85 0.84 0.87 0.84 0.86 0.86 0.86 0.90 0.92 0.88 0.83 0.81 0.90 0.83 0.82 0.80 0.85 0.86 0.82 0.83 0.93 0.98 1.01 1.06 1.07 1.05
0.78 0.81 0.77 0.83 0.75 0.84 0.89 0.85 0.82 0.81 0.80 0.82 0.84 0.78 0.79 0.82 0.84 0.82 0.83 0.84 0.81 0.80 0.81 0.80 0.82 0.78 0.74 0.86 0.99 1.01 1.06 1.06 1.13
0.81 0.82 0.79 0.81 0.82 0.80 0.85 0.81 0.79 0.78 0.80 0.81 0.80 0.78 0.76 0.74 0.78 0.80 0.84 0.93 0.84 0.78 0.79 0.77 0.80 0.80 0.76 0.84 0.91 0.95 1.00 1.05 1.12
0.81 0.80 0.80 0.84 0.83 0.80 0.82 0.78 0.80 0.79 0.82 0.82 0.79 0.78 0.76 0.77 0.79 0.80 0.76 0.85 0.81 0.86 0.83 0.81 0.78 0.77 0.78 0.87 0.88 0.90 0.95 0.99 1.07
0.92 0.84 0.86 0.91 0.86 0.81 0.82 0.85 0.82 0.81 0.81 0.82 0.79 0.77 0.77 0.76 0.82 0.80 0.80 0.87 0.76 0.76 0.78 0.75 0.83 0.80 0.74 0.78 0.85 0.87 0.87 0.95 1.02
1.06 0.95 0.94 0.97 0.96 0.84 0.90 0.89 0.86 0.85 0.84 0.82 0.82 0.79 0.78 0.78 0.76 0.77 0.81 0.79 0.83 0.92 0.89 0.84 0.77 0.84 0.75 0.77 0.76 0.83 0.85 0.88 0.94
1.08 1.01 0.92 0.95 0.97 0.86 0.91 0.94 0.93 0.90 0.90 0.85 0.85 0.82 0.80 0.76 0.76 0.81 0.81 0.77 0.83 0.81 0.78 0.77 0.77 0.71 0.77 0.73 0.74 0.75 0.79 0.83 0.89
1.17 1.06 0.98 0.99 1.00 0.88 0.90 0.93 0.92 0.92 0.92 0.88 0.85 0.80 0.78 0.77 0.75 0.79 0.80 0.76 0.87 0.84 0.78 0.80 0.78 0.72 0.73 0.74 0.72 0.72 0.70 0.76 0.84
1.36 1.29 1.20 1.13 1.11 1.02 1.01 1.01 1.01 0.96 0.96 0.98 0.98 0.95 0.84 0.76 0.74 0.73 0.73 0.77 0.84 0.83 0.78 0.73 0.69 0.75 0.80 0.75 0.71 0.72 0.68 0.71 0.76
1.34 1.32 1.24 1.16 1.16 1.12 1.13 1.09 1.12 1.08 1.05 1.04 1.02 1.02 1.02 1.00 0.89 0.74 0.74 0.76 0.78 0.80 0.77 0.77 0.73 0.75 0.70 0.69 0.67 0.71 0.69 0.69 0.71
1.30 1.28 1.22 1.14 1.08 1.09 1.11 1.09 1.05 1.05 1.10 1.01 0.99 0.99 1.01 1.04 1.04 1.03 0.94 0.78 0.72 0.74 0.74 0.77 0.75 0.74 0.73 0.70 0.65 0.72 0.71 0.70 0.67
1.19 1.18 1.17 1.12 1.02 1.00 1.03 1.02 1.00 1.01 1.06 0.95 0.90 0.78 0.90 1.01 1.04 1.05 1.05 1.00 0.96 0.74 0.72 0.71 0.71 0.69 0.69 0.68 0.67 0.62 0.66 0.66 0.70
1.20 1.16 1.15 1.08 1.05 1.04 0.97 0.96 0.99 0.95 1.01 0.97 0.81 0.67 0.61 0.82 1.01 1.05 1.08 1.06 1.06 0.98 0.89 0.76 0.70 0.67 0.67 0.65 0.65 0.63 0.61 0.63 0.72
1.16 1.14 1.21 1.17 1.10 1.04 0.97 1.11 0.96 1.05 0.89 0.93 0.92 0.88 0.85 0.73 0.65 0.93 0.99 1.10 1.08 1.06 1.00 1.00 0.91 0.79 0.72 0.69 0.65 0.63 0.63 0.60 0.71
1.07 1.05 0.98 0.94 1.00 1.08 1.04 1.01 1.00 1.02 0.93 0.83 0.86 0.87 0.86 0.88 0.71 0.67 0.78 0.96 1.03 1.10 1.09 1.09 1.06 1.02 0.93 0.80 0.74 0.67 0.63 0.63 0.62
Wind_Speed
15 15 14 14 14 13 13 13 14 14 14 15 16 16 15 14 14 14 13 13 13 13 14 14 14 14 14 15 15 16 17 18 19
16 15 14 13 13 12 12 13 13 14 13 13 13 14 14 14 14 14 14 13 12 12 13 13 13 13 14 14 15 15 16 18 19
15 14 13 13 12 12 12 12 12 11 11 12 12 11 12 12 12 13 13 13 13 12 12 12 12 13 14 15 14 15 16 16 18
15 13 12 13 12 11 11 11 10 10 9 10 10 10 9 9 9 9 10 11 12 12 12 11 11 12 12 13 14 15 15 16 16
14 13 12 13 12 11 10 9 8 7 7 7 6 7 7 7 7 8 8 8 9 10 10 10 10 10 11 12 13 13 14 15 15
14 13 13 12 12 11 10 8 8 7 7 6 5 4 3 3 4 5 6 6 7 7 9 9 9 9 9 10 11 12 13 14 14
14 12 12 11 11 12 10 9 8 7 6 5 3 2 2 2 1 2 4 4 5 5 6 7 7 7 7 8 9 10 11 12 12
13 12 12 11 10 12 11 9 8 7 6 5 3 2 1 1 1 0 1 2 3 4 4 4 5 6 6 6 7 7 8 10 11
14 12 12 11 11 12 11 9 8 7 6 5 3 2 1 2 2 1 1 1 2 2 3 3 4 4 4 5 5 5 6 7 9
14 13 13 11 11 11 11 10 8 6 6 5 4 3 3 3 3 3 2 2 3 3 2 3 3 4 4 3 4 4 4 5 7
16 14 14 13 12 11 12 10 9 7 6 6 5 4 4 3 4 5 4 5 4 3 3 3 3 4 4 4 3 4 4 4 4
16 15 14 14 12 12 12 10 9 8 7 6 6 6 5 5 5 5 5 5 6 6 5 5 5 5 5 4 4 4 4 4 4
16 15 14 14 13 12 12 10 9 9 8 7 7 6 6 6 7 7 7 7 7 7 7 6 7 6 6 5 5 5 5 5 5
17 15 14 14 13 13 12 10 9 9 9 9 8 8 8 7 8 9 9 9 9 9 8 9 8 8 7 7 7 7 6 6 6
18 16 15 15 14 13 12 11 9 9 9 9 9 10 10 10 10 10 11 11 12 12 11 11 10 10 9 9 9 9 8 7 8
19 18 16 16 15 14 14 12 11 11 11 10 10 11 12 12 12 13 12 12 13 13 14 14 13 12 12 11 10 10 9 9 9
21 20 19 18 17 16 16 15 13 12 13 12 12 13 14 14 14 15 15 15 15 15 15 15 15 15 14 14 13 12 12 11 11
23 22 21 20 19 18 18 18 17 15 16 15 14 14 15 14 15 15 16 16 17 17 17 17 17 17 17 16 16 15 14 14 14
25 24 23 23 22 21 20 20 20 19 18 19 19 18 17 16 17 17 19 18 19 19 20 20 20 20 19 19 19 18 17 16 15
26 26 25 25 25 24 23 22 22 22 21 21 20 20 20 20 20 20 19 21 22 22 21 22 22 23 22 22 22 21 20 19 19
Wind_Direction
148 144 136 133 128 124 120 114 108 105 101 100 97 97 93 89 85 81 77 75 72 69 68 67 69 65 62 59 56 51 50 48 49
153 149 144 141 135 128 125 120 114 108 103 103 101 98 94 89 83 78 73 73 71 69 67 70 66 59 62 58 55 54 52 51 50
156 157 153 151 144 136 132 128 123 115 109 106 104 102 96 90 81 75 72 71 69 68 65 69 65 63 63 59 57 54 54 52 50
162 160 160 162 156 146 144 139 132 124 117 113 107 103 98 89 80 72 71 70 68 66 65 70 65 62 61 58 57 55 54 53 52
167 169 164 167 166 161 155 155 151 143 133 127 124 117 103 89 78 73 71 71 66 64 62 66 63 59 59 56 55 54 55 53 54
173 173 174 171 175 173 171 168 166 160 149 139 131 138 129 105 82 70 61 69 65 61 59 60 59 58 59 53 54 53 51 50 52
177 177 177 177 179 180 175 171 168 168 165 165 154 139 152 148 121 63 66 63 58 55 53 52 53 51 51 51 51 51 49 49 50
181 181 180 181 182 180 178 178 181 184 182 179 178 180 200 222 218 1 55 51 43 45 43 41 42 42 49 43 45 47 46 45 45
186 186 184 186 184 182 184 184 184 189 193 196 202 213 237 225 231 238 290 306 354 12 18 23 22 24 28 32 34 34 36 39 40
192 192 191 191 188 190 191 190 192 197 202 209 218 232 249 248 241 251 276 278 305 313 323 342 352 0 6 4 13 15 18 26 30
199 199 199 199 199 199 197 198 202 207 214 221 228 240 255 252 261 264 265 275 282 293 303 309 321 335 336 342 334 348 356 357 5
201 202 202 203 204 205 200 204 210 214 221 230 233 246 256 259 265 265 268 278 273 281 284 291 297 308 311 316 321 320 326 333 336
198 199 201 202 204 202 203 212 221 224 231 234 239 250 265 265 267 266 267 276 271 279 283 285 290 296 295 301 306 308 308 305 319
199 200 200 200 202 205 209 216 225 227 233 238 246 257 266 266 271 269 271 272 272 271 276 284 288 284 287 293 295 299 299 301 300
203 204 205 206 208 212 217 224 234 235 238 245 252 262 264 268 270 271 273 275 271 270 273 279 279 278 280 287 288 288 292 293 295
210 212 212 214 218 221 224 231 239 242 244 250 261 267 266 270 271 272 274 275 272 272 272 275 274 275 277 279 283 282 284 286 292
218 220 221 223 227 229 232 237 242 248 246 256 263 269 272 271 273 273 273 273 274 274 272 274 272 272 273 274 277 277 278 281 284
222 224 226 229 232 234 238 239 244 249 249 256 264 270 270 273 273 275 274 274 276 273 273 273 271 271 271 271 272 274 275 276 279
227 229 231 233 236 239 241 243 247 249 255 259 263 267 269 272 278 275 275 274 276 276 273 271 271 271 269 269 269 270 272 273 274
231 232 235 238 240 243 245 247 249 252 258 259 263 266 269 271 273 276 278 274 276 275 275 273 271 269 270 268 268 268 270 271 272